Year,Month,Day,Hour,Minute,Value (Times are PST for temperature in C)
2009,07,27,00,00,14.80
2009,07,27,00,01,14.80
2009,07,27,00,02,14.80
2009,07,27,00,03,14.80
2009,07,27,00,04,14.80
2009,07,27,00,05,14.80
2009,07,27,00,06,14.80
2009,07,27,00,07,14.80
2009,07,27,00,08,14.80
2009,07,27,00,09,14.80
2009,07,27,00,10,14.80
2009,07,27,00,11,14.80
2009,07,27,00,12,14.80
2009,07,27,00,13,14.80
2009,07,27,00,14,14.90
2009,07,27,00,15,14.90
2009,07,27,00,16,14.90
2009,07,27,00,17,14.90
2009,07,27,00,18,14.90
2009,07,27,00,19,14.90
2009,07,27,00,20,14.90
2009,07,27,00,21,14.90
2009,07,27,00,22,14.90
2009,07,27,00,23,14.90
2009,07,27,00,24,14.90
2009,07,27,00,25,14.90
2009,07,27,00,26,14.90
2009,07,27,00,27,14.90
2009,07,27,00,28,14.90
2009,07,27,00,29,14.90
2009,07,27,00,30,14.90
2009,07,27,00,31,14.90
2009,07,27,00,32,14.90
2009,07,27,00,33,14.80
2009,07,27,00,34,14.80
2009,07,27,00,35,14.80
2009,07,27,00,36,14.80
2009,07,27,00,37,14.80
2009,07,27,00,38,14.80
2009,07,27,00,39,14.80
2009,07,27,00,40,14.80
2009,07,27,00,41,14.80
2009,07,27,00,42,14.80
2009,07,27,00,43,14.80
2009,07,27,00,44,14.80
2009,07,27,00,45,14.80
2009,07,27,00,46,14.80
2009,07,27,00,47,14.90
2009,07,27,00,48,14.90
2009,07,27,00,49,14.90
2009,07,27,00,50,14.90
2009,07,27,00,51,14.80
2009,07,27,00,52,14.80
2009,07,27,00,53,14.80
2009,07,27,00,54,14.80
2009,07,27,00,55,14.80
2009,07,27,00,56,14.80
2009,07,27,00,57,14.80
2009,07,27,00,58,14.80
2009,07,27,00,59,14.80
2009,07,27,01,00,14.80
2009,07,27,01,01,14.80
2009,07,27,01,02,14.80
2009,07,27,01,03,14.80
2009,07,27,01,04,14.80
2009,07,27,01,05,14.80
2009,07,27,01,06,14.80
2009,07,27,01,07,14.80
2009,07,27,01,08,14.80
2009,07,27,01,09,14.80
2009,07,27,01,10,14.70
2009,07,27,01,11,14.70
2009,07,27,01,12,14.60
2009,07,27,01,13,14.60
2009,07,27,01,14,14.50
2009,07,27,01,15,14.50
2009,07,27,01,16,14.40
2009,07,27,01,17,14.40
2009,07,27,01,18,14.30
2009,07,27,01,19,14.20
2009,07,27,01,20,14.10
2009,07,27,01,21,13.90
2009,07,27,01,22,13.80
2009,07,27,01,23,13.70
2009,07,27,01,24,13.70
2009,07,27,01,25,13.70
2009,07,27,01,26,13.70
2009,07,27,01,27,13.60
2009,07,27,01,28,13.60
2009,07,27,01,29,13.60
2009,07,27,01,30,13.50
2009,07,27,01,31,13.50
2009,07,27,01,32,13.50
2009,07,27,01,33,13.50
2009,07,27,01,34,13.50
2009,07,27,01,35,13.60
2009,07,27,01,36,13.60
2009,07,27,01,37,13.60
2009,07,27,01,38,13.60
2009,07,27,01,39,13.60
2009,07,27,01,40,13.70
2009,07,27,01,41,13.70
2009,07,27,01,42,13.70
2009,07,27,01,43,13.70
2009,07,27,01,44,13.70
2009,07,27,01,45,13.70
2009,07,27,01,46,13.70
2009,07,27,01,47,13.70
2009,07,27,01,48,13.80
2009,07,27,01,49,13.80
2009,07,27,01,50,13.80
2009,07,27,01,51,13.80
2009,07,27,01,52,13.80
2009,07,27,01,53,13.80
2009,07,27,01,54,13.80
2009,07,27,01,55,13.80
2009,07,27,01,56,13.70
2009,07,27,01,57,13.70
2009,07,27,01,58,13.70
2009,07,27,01,59,13.70
2009,07,27,02,00,13.80
2009,07,27,02,01,13.80
2009,07,27,02,02,13.80
2009,07,27,02,03,13.80
2009,07,27,02,04,13.80
2009,07,27,02,05,13.80
2009,07,27,02,06,13.80
2009,07,27,02,07,13.80
2009,07,27,02,08,13.90
2009,07,27,02,09,13.90
2009,07,27,02,10,13.90
2009,07,27,02,11,13.90
2009,07,27,02,12,13.90
2009,07,27,02,13,13.90
2009,07,27,02,14,14.00
2009,07,27,02,15,14.00
2009,07,27,02,16,14.00
2009,07,27,02,17,14.00
2009,07,27,02,18,14.00
2009,07,27,02,19,14.00
2009,07,27,02,20,14.00
2009,07,27,02,21,14.00
2009,07,27,02,22,14.00
2009,07,27,02,23,14.10
2009,07,27,02,24,14.10
2009,07,27,02,25,14.10
2009,07,27,02,26,14.10
2009,07,27,02,27,14.10
2009,07,27,02,28,14.10
2009,07,27,02,29,14.10
2009,07,27,02,30,14.20
2009,07,27,02,31,14.20
2009,07,27,02,32,14.20
2009,07,27,02,33,14.20
2009,07,27,02,34,14.20
2009,07,27,02,35,14.20
2009,07,27,02,36,14.20
2009,07,27,02,37,14.20
2009,07,27,02,38,14.30
2009,07,27,02,39,14.30
2009,07,27,02,40,14.30
2009,07,27,02,41,14.30
2009,07,27,02,42,14.30
2009,07,27,02,43,14.30
2009,07,27,02,44,14.30
2009,07,27,02,45,14.30
2009,07,27,02,46,14.30
2009,07,27,02,47,14.30
2009,07,27,02,48,14.30
2009,07,27,02,49,14.30
2009,07,27,02,50,14.30
2009,07,27,02,51,14.40
2009,07,27,02,52,14.50
2009,07,27,02,53,14.50
2009,07,27,02,54,14.60
2009,07,27,02,55,14.60
2009,07,27,02,56,14.60
2009,07,27,02,57,14.70
2009,07,27,02,58,14.70
2009,07,27,02,59,14.70
2009,07,27,03,00,14.80
2009,07,27,03,01,14.80
2009,07,27,03,02,14.80
2009,07,27,03,03,14.80
2009,07,27,03,04,14.80
2009,07,27,03,05,14.80
2009,07,27,03,06,14.80
2009,07,27,03,07,14.80
2009,07,27,03,08,14.80
2009,07,27,03,09,14.80
2009,07,27,03,10,14.80
2009,07,27,03,11,14.80
2009,07,27,03,12,14.80
2009,07,27,03,13,14.80
2009,07,27,03,14,14.80
2009,07,27,03,15,14.80
2009,07,27,03,16,14.80
2009,07,27,03,17,14.80
2009,07,27,03,18,14.80
2009,07,27,03,19,14.80
2009,07,27,03,20,14.80
2009,07,27,03,21,14.80
2009,07,27,03,22,14.70
2009,07,27,03,23,14.70
2009,07,27,03,24,14.70
2009,07,27,03,25,14.70
2009,07,27,03,26,14.70
2009,07,27,03,27,14.70
2009,07,27,03,28,14.70
2009,07,27,03,29,14.60
2009,07,27,03,30,14.60
2009,07,27,03,31,14.60
2009,07,27,03,32,14.60
2009,07,27,03,33,14.60
2009,07,27,03,34,14.60
2009,07,27,03,35,14.60
2009,07,27,03,36,14.60
2009,07,27,03,37,14.60
2009,07,27,03,38,14.60
2009,07,27,03,39,14.60
2009,07,27,03,40,14.60
2009,07,27,03,41,14.60
2009,07,27,03,42,14.50
2009,07,27,03,43,14.50
2009,07,27,03,44,14.50
2009,07,27,03,45,14.50
2009,07,27,03,46,14.50
2009,07,27,03,47,14.50
2009,07,27,03,48,14.50
2009,07,27,03,49,14.50
2009,07,27,03,50,14.50
2009,07,27,03,51,14.50
2009,07,27,03,52,14.50
2009,07,27,03,53,14.50
2009,07,27,03,54,14.50
2009,07,27,03,55,14.50
2009,07,27,03,56,14.50
2009,07,27,03,57,14.40
2009,07,27,03,58,14.40
2009,07,27,03,59,14.40
2009,07,27,04,00,14.40
2009,07,27,04,01,14.40
2009,07,27,04,02,14.40
2009,07,27,04,03,14.40
2009,07,27,04,04,14.40
2009,07,27,04,05,14.40
2009,07,27,04,06,14.40
2009,07,27,04,07,14.30
2009,07,27,04,08,14.30
2009,07,27,04,09,14.20
2009,07,27,04,10,14.20
2009,07,27,04,11,14.20
2009,07,27,04,12,14.10
2009,07,27,04,13,14.10
2009,07,27,04,14,14.10
2009,07,27,04,15,14.00
2009,07,27,04,16,14.00
2009,07,27,04,17,13.90
2009,07,27,04,18,13.80
2009,07,27,04,19,13.70
2009,07,27,04,20,13.70
2009,07,27,04,21,13.60
2009,07,27,04,22,13.50
2009,07,27,04,23,13.50
2009,07,27,04,24,13.40
2009,07,27,04,25,13.40
2009,07,27,04,26,13.30
2009,07,27,04,27,13.30
2009,07,27,04,28,13.30
2009,07,27,04,29,13.30
2009,07,27,04,30,13.30
2009,07,27,04,31,13.20
2009,07,27,04,32,13.20
2009,07,27,04,33,13.20
2009,07,27,04,34,13.20
2009,07,27,04,35,13.20
2009,07,27,04,36,13.20
2009,07,27,04,37,13.20
2009,07,27,04,38,13.20
2009,07,27,04,39,13.20
2009,07,27,04,40,13.20
2009,07,27,04,41,13.20
2009,07,27,04,42,13.20
2009,07,27,04,43,13.10
2009,07,27,04,44,13.10
2009,07,27,04,45,13.10
2009,07,27,04,46,13.10
2009,07,27,04,47,13.10
2009,07,27,04,48,13.10
2009,07,27,04,49,13.10
2009,07,27,04,50,13.10
2009,07,27,04,51,13.10
2009,07,27,04,52,13.10
2009,07,27,04,53,13.10
2009,07,27,04,54,13.20
2009,07,27,04,55,13.20
2009,07,27,04,56,13.20
2009,07,27,04,57,13.20
2009,07,27,04,58,13.20
2009,07,27,04,59,13.20
2009,07,27,05,00,13.20
2009,07,27,05,01,13.20
2009,07,27,05,02,13.20
2009,07,27,05,03,13.20
2009,07,27,05,04,13.20
2009,07,27,05,05,13.20
2009,07,27,05,06,13.20
2009,07,27,05,07,13.20
2009,07,27,05,08,13.20
2009,07,27,05,09,13.20
2009,07,27,05,10,13.20
2009,07,27,05,11,13.20
2009,07,27,05,12,13.20
2009,07,27,05,13,13.10
2009,07,27,05,14,13.10
2009,07,27,05,15,13.10
2009,07,27,05,16,13.10
2009,07,27,05,17,13.10
2009,07,27,05,18,13.10
2009,07,27,05,19,13.10
2009,07,27,05,20,13.10
2009,07,27,05,21,13.10
2009,07,27,05,22,13.10
2009,07,27,05,23,13.10
2009,07,27,05,24,13.10
2009,07,27,05,25,13.10
2009,07,27,05,26,13.10
2009,07,27,05,27,13.10
2009,07,27,05,28,13.20
2009,07,27,05,29,13.20
2009,07,27,05,30,13.20
2009,07,27,05,31,13.20
2009,07,27,05,32,13.20
2009,07,27,05,33,13.20
2009,07,27,05,34,13.20
2009,07,27,05,35,13.20
2009,07,27,05,36,13.20
2009,07,27,05,37,13.20
2009,07,27,05,38,13.30
2009,07,27,05,39,13.30
2009,07,27,05,40,13.30
2009,07,27,05,41,13.40
2009,07,27,05,42,13.50
2009,07,27,05,43,13.60
2009,07,27,05,44,13.70
2009,07,27,05,45,13.70
2009,07,27,05,46,13.90
2009,07,27,05,47,13.90
2009,07,27,05,48,14.00
2009,07,27,05,49,14.00
2009,07,27,05,50,14.10
2009,07,27,05,51,14.10
2009,07,27,05,52,14.10
2009,07,27,05,53,14.20
2009,07,27,05,54,14.20
2009,07,27,05,55,14.20
2009,07,27,05,56,14.20
2009,07,27,05,57,14.20
2009,07,27,05,58,14.30
2009,07,27,05,59,14.30
2009,07,27,06,00,14.40
2009,07,27,06,01,14.40
2009,07,27,06,02,14.50
2009,07,27,06,03,14.50
2009,07,27,06,04,14.60
2009,07,27,06,05,14.60
2009,07,27,06,06,14.70
2009,07,27,06,07,14.70
2009,07,27,06,08,14.70
2009,07,27,06,09,14.70
2009,07,27,06,10,14.80
2009,07,27,06,11,14.80
2009,07,27,06,12,14.80
2009,07,27,06,13,14.90
2009,07,27,06,14,14.90
2009,07,27,06,15,15.00
2009,07,27,06,16,15.10
2009,07,27,06,17,15.10
2009,07,27,06,18,15.10
2009,07,27,06,19,15.20
2009,07,27,06,20,15.20
2009,07,27,06,21,15.20
2009,07,27,06,22,15.20
2009,07,27,06,23,15.30
2009,07,27,06,24,15.30
2009,07,27,06,25,15.30
2009,07,27,06,26,15.30
2009,07,27,06,27,15.30
2009,07,27,06,28,15.40
2009,07,27,06,29,15.40
2009,07,27,06,30,15.50
2009,07,27,06,31,15.50
2009,07,27,06,32,15.60
2009,07,27,06,33,15.60
2009,07,27,06,34,15.70
2009,07,27,06,35,15.70
2009,07,27,06,36,15.80
2009,07,27,06,37,15.80
2009,07,27,06,38,15.80
2009,07,27,06,39,15.90
2009,07,27,06,40,16.00
2009,07,27,06,41,16.10
2009,07,27,06,42,16.10
2009,07,27,06,43,16.10
2009,07,27,06,44,16.10
2009,07,27,06,45,16.00
2009,07,27,06,46,15.90
2009,07,27,06,47,15.90
2009,07,27,06,48,15.90
2009,07,27,06,49,15.80
2009,07,27,06,50,15.60
2009,07,27,06,51,15.50
2009,07,27,06,52,15.30
2009,07,27,06,53,15.10
2009,07,27,06,54,14.90
2009,07,27,06,55,14.70
2009,07,27,06,56,14.60
2009,07,27,06,57,14.40
2009,07,27,06,58,14.30
2009,07,27,06,59,14.20
2009,07,27,07,00,14.10
2009,07,27,07,01,14.00
2009,07,27,07,02,14.00
2009,07,27,07,03,13.90
2009,07,27,07,04,13.90
2009,07,27,07,05,13.80
2009,07,27,07,06,13.70
2009,07,27,07,07,13.70
2009,07,27,07,08,13.50
2009,07,27,07,09,13.50
2009,07,27,07,10,13.40
2009,07,27,07,11,13.30
2009,07,27,07,12,13.20
2009,07,27,07,13,13.20
2009,07,27,07,14,13.10
2009,07,27,07,15,13.10
2009,07,27,07,16,13.10
2009,07,27,07,17,13.00
2009,07,27,07,18,13.00
2009,07,27,07,19,13.10
2009,07,27,07,20,13.10
2009,07,27,07,21,13.10
2009,07,27,07,22,13.20
2009,07,27,07,23,13.20
2009,07,27,07,24,13.20
2009,07,27,07,25,13.20
2009,07,27,07,26,13.30
2009,07,27,07,27,13.30
2009,07,27,07,28,13.30
2009,07,27,07,29,13.30
2009,07,27,07,30,13.30
2009,07,27,07,31,13.30
2009,07,27,07,32,13.30
2009,07,27,07,33,13.40
2009,07,27,07,34,13.40
2009,07,27,07,35,13.40
2009,07,27,07,36,13.40
2009,07,27,07,37,13.40
2009,07,27,07,38,13.40
2009,07,27,07,39,13.40
2009,07,27,07,40,13.40
2009,07,27,07,41,13.50
2009,07,27,07,42,13.50
2009,07,27,07,43,13.60
2009,07,27,07,44,13.70
2009,07,27,07,45,13.70
2009,07,27,07,46,13.70
2009,07,27,07,47,13.70
2009,07,27,07,48,13.80
2009,07,27,07,49,13.80
2009,07,27,07,50,13.80
2009,07,27,07,51,13.90
2009,07,27,07,52,13.90
2009,07,27,07,53,14.00
2009,07,27,07,54,14.00
2009,07,27,07,55,14.10
2009,07,27,07,56,14.20
2009,07,27,07,57,14.20
2009,07,27,07,58,14.30
2009,07,27,07,59,14.40
2009,07,27,08,00,14.50
2009,07,27,08,01,14.60
2009,07,27,08,02,14.70
2009,07,27,08,03,14.70
2009,07,27,08,04,14.80
2009,07,27,08,05,14.80
2009,07,27,08,06,14.90
2009,07,27,08,07,15.00
2009,07,27,08,08,15.00
2009,07,27,08,09,15.10
2009,07,27,08,10,15.20
2009,07,27,08,11,15.30
2009,07,27,08,12,15.30
2009,07,27,08,13,15.30
2009,07,27,08,14,15.30
2009,07,27,08,15,15.30
2009,07,27,08,16,15.30
2009,07,27,08,17,15.30
2009,07,27,08,18,15.20
2009,07,27,08,19,15.20
2009,07,27,08,20,15.20
2009,07,27,08,21,15.20
2009,07,27,08,22,15.20
2009,07,27,08,23,15.10
2009,07,27,08,24,15.10
2009,07,27,08,25,15.10
2009,07,27,08,26,15.10
2009,07,27,08,27,15.10
2009,07,27,08,28,15.10
2009,07,27,08,29,15.20
2009,07,27,08,30,15.20
2009,07,27,08,31,15.30
2009,07,27,08,32,15.30
2009,07,27,08,33,15.40
2009,07,27,08,34,15.50
2009,07,27,08,35,15.60
2009,07,27,08,36,15.60
2009,07,27,08,37,15.70
2009,07,27,08,38,15.70
2009,07,27,08,39,15.70
2009,07,27,08,40,15.70
2009,07,27,08,41,15.70
2009,07,27,08,42,15.70
2009,07,27,08,43,15.80
2009,07,27,08,44,15.80
2009,07,27,08,45,15.90
2009,07,27,08,46,16.00
2009,07,27,08,47,16.10
2009,07,27,08,48,16.30
2009,07,27,08,49,16.30
2009,07,27,08,50,16.30
2009,07,27,08,51,16.30
2009,07,27,08,52,16.20
2009,07,27,08,53,16.30
2009,07,27,08,54,16.30
2009,07,27,08,55,16.30
2009,07,27,08,56,16.30
2009,07,27,08,57,16.30
2009,07,27,08,58,16.30
2009,07,27,08,59,16.40
2009,07,27,09,00,16.40
2009,07,27,09,01,16.40
2009,07,27,09,02,16.40
2009,07,27,09,03,16.30
2009,07,27,09,04,16.30
2009,07,27,09,05,16.30
2009,07,27,09,06,16.30
2009,07,27,09,07,16.30
2009,07,27,09,08,16.30
2009,07,27,09,09,16.20
2009,07,27,09,10,16.10
2009,07,27,09,11,15.90
2009,07,27,09,12,15.80
2009,07,27,09,13,15.80
2009,07,27,09,14,15.80
2009,07,27,09,15,15.80
2009,07,27,09,16,15.80
2009,07,27,09,17,15.80
2009,07,27,09,18,15.80
2009,07,27,09,19,15.80
2009,07,27,09,20,15.80
2009,07,27,09,21,15.70
2009,07,27,09,22,15.70
2009,07,27,09,23,15.60
2009,07,27,09,24,15.60
2009,07,27,09,25,15.70
2009,07,27,09,26,15.70
2009,07,27,09,27,15.70
2009,07,27,09,28,15.70
2009,07,27,09,29,15.80
2009,07,27,09,30,15.80
2009,07,27,09,31,15.80
2009,07,27,09,32,15.80
2009,07,27,09,33,15.80
2009,07,27,09,34,15.90
2009,07,27,09,35,15.90
2009,07,27,09,36,15.90
2009,07,27,09,37,16.10
2009,07,27,09,38,16.10
2009,07,27,09,39,16.20
2009,07,27,09,40,16.20
2009,07,27,09,41,16.20
2009,07,27,09,42,16.30
2009,07,27,09,43,16.40
2009,07,27,09,44,16.50
2009,07,27,09,45,16.60
2009,07,27,09,46,16.70
2009,07,27,09,47,16.70
2009,07,27,09,48,16.70
2009,07,27,09,49,16.70
2009,07,27,09,50,16.80
2009,07,27,09,51,16.80
2009,07,27,09,52,16.90
2009,07,27,09,53,16.90
2009,07,27,09,54,17.00
2009,07,27,09,55,17.10
2009,07,27,09,56,17.10
2009,07,27,09,57,17.10
2009,07,27,09,58,17.10
2009,07,27,09,59,17.20
2009,07,27,10,00,17.20
2009,07,27,10,01,17.30
2009,07,27,10,02,17.30
2009,07,27,10,03,17.40
2009,07,27,10,04,17.50
2009,07,27,10,05,17.60
2009,07,27,10,06,17.70
2009,07,27,10,07,17.70
2009,07,27,10,08,17.70
2009,07,27,10,09,17.60
2009,07,27,10,10,17.70
2009,07,27,10,11,17.80
2009,07,27,10,12,17.80
2009,07,27,10,13,17.90
2009,07,27,10,14,18.00
2009,07,27,10,15,18.10
2009,07,27,10,16,18.10
2009,07,27,10,17,17.90
2009,07,27,10,18,17.90
2009,07,27,10,19,17.90
2009,07,27,10,20,17.90
2009,07,27,10,21,17.80
2009,07,27,10,22,17.80
2009,07,27,10,23,17.80
2009,07,27,10,24,17.80
2009,07,27,10,25,17.80
2009,07,27,10,26,17.80
2009,07,27,10,27,17.90
2009,07,27,10,28,17.90
2009,07,27,10,29,17.90
2009,07,27,10,30,18.00
2009,07,27,10,31,18.20
2009,07,27,10,32,18.20
2009,07,27,10,33,18.20
2009,07,27,10,34,18.30
2009,07,27,10,35,18.40
2009,07,27,10,36,18.50
2009,07,27,10,37,18.60
2009,07,27,10,38,18.70
2009,07,27,10,39,18.80
2009,07,27,10,40,18.90
2009,07,27,10,41,18.90
2009,07,27,10,42,18.90
2009,07,27,10,43,19.00
2009,07,27,10,44,19.10
2009,07,27,10,45,19.00
2009,07,27,10,46,18.90
2009,07,27,10,47,19.00
2009,07,27,10,48,19.10
2009,07,27,10,49,19.10
2009,07,27,10,50,19.10
2009,07,27,10,51,19.10
2009,07,27,10,52,19.10
2009,07,27,10,53,19.10
2009,07,27,10,54,19.00
2009,07,27,10,55,18.90
2009,07,27,10,56,18.90
2009,07,27,10,57,18.90
2009,07,27,10,58,18.90
2009,07,27,10,59,18.90
2009,07,27,11,00,18.90
2009,07,27,11,01,18.90
2009,07,27,11,02,18.90
2009,07,27,11,03,18.90
2009,07,27,11,04,19.10
2009,07,27,11,05,19.10
2009,07,27,11,06,19.20
2009,07,27,11,07,19.20
2009,07,27,11,08,19.20
2009,07,27,11,09,19.10
2009,07,27,11,10,19.10
2009,07,27,11,11,19.20
2009,07,27,11,12,19.10
2009,07,27,11,13,19.10
2009,07,27,11,14,19.00
2009,07,27,11,15,18.90
2009,07,27,11,16,18.90
2009,07,27,11,17,18.90
2009,07,27,11,18,18.80
2009,07,27,11,19,18.80
2009,07,27,11,20,18.60
2009,07,27,11,21,18.50
2009,07,27,11,22,18.40
2009,07,27,11,23,18.30
2009,07,27,11,24,18.30
2009,07,27,11,25,18.30
2009,07,27,11,26,18.30
2009,07,27,11,27,18.40
2009,07,27,11,28,18.40
2009,07,27,11,29,18.50
2009,07,27,11,30,18.50
2009,07,27,11,31,18.40
2009,07,27,11,32,18.50
2009,07,27,11,33,18.50
2009,07,27,11,34,18.50
2009,07,27,11,35,18.50
2009,07,27,11,36,18.50
2009,07,27,11,37,18.60
2009,07,27,11,38,18.60
2009,07,27,11,39,18.70
2009,07,27,11,40,18.80
2009,07,27,11,41,18.90
2009,07,27,11,42,18.90
2009,07,27,11,43,18.90
2009,07,27,11,44,18.90
2009,07,27,11,45,18.90
2009,07,27,11,46,18.90
2009,07,27,11,47,18.90
2009,07,27,11,48,18.90
2009,07,27,11,49,18.90
2009,07,27,11,50,18.90
2009,07,27,11,51,18.90
2009,07,27,11,52,18.80
2009,07,27,11,53,18.60
2009,07,27,11,54,18.50
2009,07,27,11,55,18.40
2009,07,27,11,56,18.30
2009,07,27,11,57,18.20
2009,07,27,11,58,18.00
2009,07,27,11,59,17.80
2009,07,27,12,00,17.60
2009,07,27,12,01,17.50
2009,07,27,12,02,17.50
2009,07,27,12,03,17.40
2009,07,27,12,04,17.50
2009,07,27,12,05,17.60
2009,07,27,12,06,17.70
2009,07,27,12,07,17.80
2009,07,27,12,08,17.80
2009,07,27,12,09,17.90
2009,07,27,12,10,17.90
2009,07,27,12,11,18.00
2009,07,27,12,12,18.00
2009,07,27,12,13,17.90
2009,07,27,12,14,17.90
2009,07,27,12,15,17.90
2009,07,27,12,16,17.90
2009,07,27,12,17,17.80
2009,07,27,12,18,17.80
2009,07,27,12,19,17.90
2009,07,27,12,20,17.90
2009,07,27,12,21,17.90
2009,07,27,12,22,18.00
2009,07,27,12,23,18.10
2009,07,27,12,24,18.20
2009,07,27,12,25,18.20
2009,07,27,12,26,18.20
2009,07,27,12,27,18.20
2009,07,27,12,28,18.20
2009,07,27,12,29,18.20
2009,07,27,12,30,18.20
2009,07,27,12,31,18.30
2009,07,27,12,32,18.30
2009,07,27,12,33,18.30
2009,07,27,12,34,18.20
2009,07,27,12,35,18.30
2009,07,27,12,36,18.30
2009,07,27,12,37,18.40
2009,07,27,12,38,18.50
2009,07,27,12,39,18.60
2009,07,27,12,40,18.60
2009,07,27,12,41,18.60
2009,07,27,12,42,18.60
2009,07,27,12,43,18.60
2009,07,27,12,44,18.60
2009,07,27,12,45,18.60
2009,07,27,12,46,18.60
2009,07,27,12,47,18.60
2009,07,27,12,48,18.70
2009,07,27,12,49,18.70
2009,07,27,12,50,18.70
2009,07,27,12,51,18.70
2009,07,27,12,52,18.70
2009,07,27,12,53,18.80
2009,07,27,12,54,18.80
2009,07,27,12,55,18.80
2009,07,27,12,56,18.80
2009,07,27,12,57,18.80
2009,07,27,12,58,18.80
2009,07,27,12,59,18.90
2009,07,27,13,00,18.90
2009,07,27,13,01,18.90
2009,07,27,13,02,18.90
2009,07,27,13,03,18.80
2009,07,27,13,04,18.80
2009,07,27,13,05,18.80
2009,07,27,13,06,18.90
2009,07,27,13,07,18.90
2009,07,27,13,08,18.90
2009,07,27,13,09,18.90
2009,07,27,13,10,18.90
2009,07,27,13,11,18.90
2009,07,27,13,12,18.90
2009,07,27,13,13,18.90
2009,07,27,13,14,18.90
2009,07,27,13,15,18.90
2009,07,27,13,16,19.10
2009,07,27,13,17,18.90
2009,07,27,13,18,18.90
2009,07,27,13,19,19.00
2009,07,27,13,20,19.10
2009,07,27,13,21,19.10
2009,07,27,13,22,19.20
2009,07,27,13,23,19.20
2009,07,27,13,24,19.20
2009,07,27,13,25,19.20
2009,07,27,13,26,19.20
2009,07,27,13,27,19.30
2009,07,27,13,28,19.40
2009,07,27,13,29,19.40
2009,07,27,13,30,19.50
2009,07,27,13,31,19.50
2009,07,27,13,32,19.50
2009,07,27,13,33,19.60
2009,07,27,13,34,19.60
2009,07,27,13,35,19.60
2009,07,27,13,36,19.60
2009,07,27,13,37,19.60
2009,07,27,13,38,19.60
2009,07,27,13,39,19.60
2009,07,27,13,40,19.70
2009,07,27,13,41,19.70
2009,07,27,13,42,19.60
2009,07,27,13,43,19.50
2009,07,27,13,44,19.50
2009,07,27,13,45,19.60
2009,07,27,13,46,19.70
2009,07,27,13,47,19.80
2009,07,27,13,48,19.90
2009,07,27,13,49,19.90
2009,07,27,13,50,19.90
2009,07,27,13,51,19.90
2009,07,27,13,52,19.90
2009,07,27,13,53,19.90
2009,07,27,13,54,19.90
2009,07,27,13,55,19.80
2009,07,27,13,56,19.70
2009,07,27,13,57,19.70
2009,07,27,13,58,19.70
2009,07,27,13,59,19.70
2009,07,27,14,00,19.80
2009,07,27,14,01,19.80
2009,07,27,14,02,19.80
2009,07,27,14,03,19.80
2009,07,27,14,04,19.90
2009,07,27,14,05,20.00
2009,07,27,14,06,20.10
2009,07,27,14,07,20.10
2009,07,27,14,08,20.10
2009,07,27,14,09,20.10
2009,07,27,14,10,20.20
2009,07,27,14,11,20.20
2009,07,27,14,12,20.40
2009,07,27,14,13,20.50
2009,07,27,14,14,20.50
2009,07,27,14,15,20.40
2009,07,27,14,16,20.30
2009,07,27,14,17,20.30
2009,07,27,14,18,20.20
2009,07,27,14,19,20.20
2009,07,27,14,20,20.20
2009,07,27,14,21,20.20
2009,07,27,14,22,20.20
2009,07,27,14,23,20.30
2009,07,27,14,24,20.50
2009,07,27,14,25,20.60
2009,07,27,14,26,20.70
2009,07,27,14,27,20.80
2009,07,27,14,28,21.00
2009,07,27,14,29,21.00
2009,07,27,14,30,21.10
2009,07,27,14,31,21.00
2009,07,27,14,32,21.00
2009,07,27,14,33,21.10
2009,07,27,14,34,21.20
2009,07,27,14,35,21.30
2009,07,27,14,36,21.30
2009,07,27,14,37,21.30
2009,07,27,14,38,21.20
2009,07,27,14,39,21.20
2009,07,27,14,40,21.10
2009,07,27,14,41,21.20
2009,07,27,14,42,21.30
2009,07,27,14,43,21.30
2009,07,27,14,44,21.40
2009,07,27,14,45,21.40
2009,07,27,14,46,21.60
2009,07,27,14,47,21.60
2009,07,27,14,48,21.50
2009,07,27,14,49,21.40
2009,07,27,14,50,21.30
2009,07,27,14,51,21.20
2009,07,27,14,52,21.20
2009,07,27,14,53,21.20
2009,07,27,14,54,21.30
2009,07,27,14,55,21.30
2009,07,27,14,56,21.30
2009,07,27,14,57,21.30
2009,07,27,14,58,21.30
2009,07,27,14,59,21.20
2009,07,27,15,00,21.30
2009,07,27,15,01,21.30
2009,07,27,15,02,21.30
2009,07,27,15,03,21.30
2009,07,27,15,04,21.40
2009,07,27,15,05,21.40
2009,07,27,15,06,21.40
2009,07,27,15,07,21.40
2009,07,27,15,08,21.40
2009,07,27,15,09,21.40
2009,07,27,15,10,21.40
2009,07,27,15,11,21.40
2009,07,27,15,12,21.50
2009,07,27,15,13,21.60
2009,07,27,15,14,21.60
2009,07,27,15,15,21.70
2009,07,27,15,16,21.80
2009,07,27,15,17,21.90
2009,07,27,15,18,22.00
2009,07,27,15,19,22.00
2009,07,27,15,20,22.00
2009,07,27,15,21,22.00
2009,07,27,15,22,22.00
2009,07,27,15,23,22.00
2009,07,27,15,24,22.00
2009,07,27,15,25,22.10
2009,07,27,15,26,22.30
2009,07,27,15,27,22.50
2009,07,27,15,28,22.60
2009,07,27,15,29,22.70
2009,07,27,15,30,22.70
2009,07,27,15,31,22.80
2009,07,27,15,32,22.90
2009,07,27,15,33,23.00
2009,07,27,15,34,23.10
2009,07,27,15,35,23.20
2009,07,27,15,36,23.20
2009,07,27,15,37,23.30
2009,07,27,15,38,23.40
2009,07,27,15,39,23.50
2009,07,27,15,40,23.60
2009,07,27,15,41,23.60
2009,07,27,15,42,23.70
2009,07,27,15,43,23.70
2009,07,27,15,44,23.80
2009,07,27,15,45,23.80
2009,07,27,15,46,23.90
2009,07,27,15,47,23.90
2009,07,27,15,48,24.00
2009,07,27,15,49,24.10
2009,07,27,15,50,24.10
2009,07,27,15,51,24.00
2009,07,27,15,52,23.90
2009,07,27,15,53,23.90
2009,07,27,15,54,23.80
2009,07,27,15,55,23.80
2009,07,27,15,56,23.80
2009,07,27,15,57,23.90
2009,07,27,15,58,23.90
2009,07,27,15,59,24.00
2009,07,27,16,00,24.10
2009,07,27,16,01,24.10
2009,07,27,16,02,24.20
2009,07,27,16,03,24.20
2009,07,27,16,04,24.40
2009,07,27,16,05,24.40
2009,07,27,16,06,24.50
2009,07,27,16,07,24.70
2009,07,27,16,08,24.80
2009,07,27,16,09,24.80
2009,07,27,16,10,24.90
2009,07,27,16,11,25.10
2009,07,27,16,12,25.10
2009,07,27,16,13,25.20
2009,07,27,16,14,25.30
2009,07,27,16,15,25.40
2009,07,27,16,16,25.40
2009,07,27,16,17,25.40
2009,07,27,16,18,25.40
2009,07,27,16,19,25.40
2009,07,27,16,20,25.40
2009,07,27,16,21,25.50
2009,07,27,16,22,25.50
2009,07,27,16,23,25.60
2009,07,27,16,24,25.60
2009,07,27,16,25,25.60
2009,07,27,16,26,25.60
2009,07,27,16,27,25.60
2009,07,27,16,28,25.50
2009,07,27,16,29,25.40
2009,07,27,16,30,25.40
2009,07,27,16,31,25.40
2009,07,27,16,32,25.30
2009,07,27,16,33,25.30
2009,07,27,16,34,25.20
2009,07,27,16,35,25.10
2009,07,27,16,36,25.00
2009,07,27,16,37,24.80
2009,07,27,16,38,24.50
2009,07,27,16,39,24.20
2009,07,27,16,40,24.00
2009,07,27,16,41,23.70
2009,07,27,16,42,23.40
2009,07,27,16,43,23.10
2009,07,27,16,44,22.90
2009,07,27,16,45,22.80
2009,07,27,16,46,22.80
2009,07,27,16,47,22.80
2009,07,27,16,48,22.80
2009,07,27,16,49,22.90
2009,07,27,16,50,22.90
2009,07,27,16,51,23.00
2009,07,27,16,52,23.10
2009,07,27,16,53,23.20
2009,07,27,16,54,23.30
2009,07,27,16,55,23.40
2009,07,27,16,56,23.60
2009,07,27,16,57,23.70
2009,07,27,16,58,23.90
2009,07,27,16,59,24.00
2009,07,27,17,00,24.10
2009,07,27,17,01,24.20
2009,07,27,17,02,24.20
2009,07,27,17,03,24.30
2009,07,27,17,04,24.40
2009,07,27,17,05,24.40
2009,07,27,17,06,24.40
2009,07,27,17,07,24.40
2009,07,27,17,08,24.40
2009,07,27,17,09,24.50
2009,07,27,17,10,24.50
2009,07,27,17,11,24.50
2009,07,27,17,12,24.70
2009,07,27,17,13,24.70
2009,07,27,17,14,24.70
2009,07,27,17,15,24.80
2009,07,27,17,16,24.80
2009,07,27,17,17,24.80
2009,07,27,17,18,24.80
2009,07,27,17,19,24.80